When you browse on this site, cookies collect data to enhance your experience and personalize the content and advertising you see.
Visit our Privacy Policy to learn more. By continuing to use the site, you agree to this use of cookies and data.
  • Em Portugal
  • Lista de países
  • Para 7 dias
  • Temperatura da água
  • Mapas de satélite
  • Mapa do tempo
  • Widgets de tempo
  • user-avatar
    Iniciar Sessão

    Previsão horária em Trzebiec

    Hoje, 18 Fevereiro, Segunda-feira

    Tempo Temperatura Precipitação Vento Pressão Humidade
    00:00 +4°C° 0 mm 2 m/s 762 mmHg 96%
    01:00 +4°C° 0 mm 2 m/s 762 mmHg 95%
    02:00 +4°C° 0 mm 2 m/s 761 mmHg 95%
    03:00 +4°C° 0 mm 2 m/s 761 mmHg 95%
    04:00 +2°C° 0 mm 3 m/s 761 mmHg 95%
    05:00 +2°C° 0 mm 3 m/s 760 mmHg 94%
    06:00 +2°C° 0 mm 3 m/s 760 mmHg 94%
    07:00 +2°C° 0 mm 3 m/s 760 mmHg 93%
    08:00 +3°C° 0 mm 3 m/s 760 mmHg 87%
    09:00 +4°C° 0 mm 4 m/s 760 mmHg 81%
    10:00 +5°C° 0 mm 4 m/s 760 mmHg 76%
    11:00 +6°C° 0 mm 4 m/s 760 mmHg 71%
    12:00 +7°C° 0 mm 4 m/s 759 mmHg 67%
    13:00 +8°C° 0 mm 4 m/s 759 mmHg 62%
    14:00 +8°C° 0 mm 4 m/s 759 mmHg 64%
    15:00 +9°C° 0 mm 3 m/s 759 mmHg 65%
    16:00 +9°C° 0 mm 3 m/s 758 mmHg 67%
    17:00 +8°C° 0 mm 3 m/s 758 mmHg 71%
    18:00 +7°C° 0 mm 3 m/s 758 mmHg 76%
    19:00 +5°C° 0 mm 3 m/s 757 mmHg 80%
    20:00 +5°C° 0 mm 3 m/s 757 mmHg 81%
    21:00 +4°C° 0 mm 3 m/s 757 mmHg 82%
    22:00 +4°C° 0 mm 3 m/s 756 mmHg 83%
    23:00 +4°C° 0 mm 3 m/s 756 mmHg 84%

    Amanhã, 19 Fevereiro, Terça-feira

    Tempo Temperatura Precipitação Vento Pressão Humidade
    00:00 +3°C° 0 mm 3 m/s 756 mmHg 85%
    01:00 +3°C° 0 mm 3 m/s 756 mmHg 86%
    02:00 +3°C° 0 mm 3 m/s 755 mmHg 86%
    03:00 +3°C° 0 mm 3 m/s 755 mmHg 86%
    04:00 +3°C° 0 mm 4 m/s 754 mmHg 87%
    05:00 +3°C° 0 mm 4 m/s 754 mmHg 88%
    06:00 +3°C° 0 mm 4 m/s 753 mmHg 89%
    07:00 +1°C° 0 mm 4 m/s 753 mmHg 91%
    08:00 +2°C° 0 mm 5 m/s 753 mmHg 87%
    09:00 +3°C° 0 mm 5 m/s 752 mmHg 83%
    10:00 +4°C° 0 mm 6 m/s 752 mmHg 79%
    11:00 +5°C° 0 mm 6 m/s 752 mmHg 79%
    12:00 +5°C° 0 mm 6 m/s 753 mmHg 79%
    13:00 +7°C° 0 mm 6 m/s 753 mmHg 79%
    14:00 +7°C° 0.4 mm 6 m/s 753 mmHg 80%
    15:00 +6°C° 0.4 mm 5 m/s 753 mmHg 82%
    16:00 +6°C° 0.4 mm 5 m/s 753 mmHg 83%
    17:00 +6°C° 0.1 mm 5 m/s 753 mmHg 82%
    18:00 +6°C° 0.1 mm 5 m/s 753 mmHg 82%
    19:00 +5°C° 0.1 mm 5 m/s 753 mmHg 82%
    20:00 +5°C° 0.1 mm 5 m/s 753 mmHg 82%
    21:00 +4°C° 0.1 mm 6 m/s 754 mmHg 83%
    22:00 +4°C° 0.1 mm 6 m/s 754 mmHg 84%
    23:00 +3°C° 0 mm 6 m/s 754 mmHg 85%

    Depois de amanhã, 20 Fevereiro, Quarta-feira

    Tempo Temperatura Precipitação Vento Pressão Humidade
    00:00 +3°C° 0 mm 6 m/s 754 mmHg 87%
    01:00 +2°C° 0 mm 5 m/s 754 mmHg 88%
    02:00 +2°C° 0 mm 6 m/s 754 mmHg 88%
    03:00 +2°C° 0 mm 6 m/s 755 mmHg 88%
    04:00 +2°C° 0 mm 7 m/s 755 mmHg 88%
    05:00 +2°C° 0.1 mm 7 m/s 755 mmHg 87%
    06:00 +2°C° 0.1 mm 6 m/s 755 mmHg 85%
    07:00 +2°C° 0.1 mm 6 m/s 755 mmHg 84%
    08:00 +3°C° 0.2 mm 6 m/s 756 mmHg 84%
    09:00 +3°C° 0.2 mm 6 m/s 756 mmHg 85%
    10:00 +3°C° 0.2 mm 6 m/s 756 mmHg 85%
    11:00 +4°C° 0.1 mm 6 m/s 757 mmHg 82%
    12:00 +4°C° 0.1 mm 6 m/s 757 mmHg 79%
    13:00 +5°C° 0.1 mm 6 m/s 757 mmHg 76%
    14:00 +5°C° 0.1 mm 6 m/s 758 mmHg 76%
    15:00 +6°C° 0.1 mm 5 m/s 758 mmHg 77%
    16:00 +6°C° 0.1 mm 5 m/s 758 mmHg 77%
    17:00 +6°C° 0.1 mm 4 m/s 758 mmHg 81%
    18:00 +5°C° 0.1 mm 4 m/s 758 mmHg 84%
    19:00 +5°C° 0.1 mm 4 m/s 759 mmHg 88%
    20:00 +5°C° 0.2 mm 4 m/s 759 mmHg 88%
    21:00 +5°C° 0.2 mm 4 m/s 758 mmHg 88%
    22:00 +5°C° 0.2 mm 4 m/s 758 mmHg 89%
    23:00 +5°C° 0.4 mm 4 m/s 758 mmHg 89%

    21 Fevereiro, Quinta-feira

    Tempo Temperatura Precipitação Vento Pressão Humidade
    00:00 +5°C° 0.4 mm 5 m/s 758 mmHg 89%
    01:00 +5°C° 0.4 mm 5 m/s 758 mmHg 89%
    02:00 +5°C° 0.5 mm 5 m/s 758 mmHg 90%
    03:00 +5°C° 0.5 mm 5 m/s 757 mmHg 90%
    04:00 +5°C° 0.5 mm 5 m/s 757 mmHg 91%
    05:00 +5°C° 0.8 mm 5 m/s 757 mmHg 91%
    06:00 +5°C° 0.8 mm 5 m/s 757 mmHg 92%
    07:00 +5°C° 0.8 mm 5 m/s 757 mmHg 92%
    08:00 +5°C° 0.9 mm 5 m/s 757 mmHg 93%
    09:00 +6°C° 0.9 mm 5 m/s 757 mmHg 94%
    10:00 +6°C° 0.9 mm 5 m/s 758 mmHg 94%
    11:00 +5°C° 1.8 mm 5 m/s 758 mmHg 94%
    12:00 +5°C° 1.8 mm 5 m/s 758 mmHg 93%
    13:00 +5°C° 1.8 mm 4 m/s 759 mmHg 93%
    14:00 +5°C° 0 mm 4 m/s 759 mmHg 92%
    15:00 +6°C° 0 mm 5 m/s 760 mmHg 91%
    16:00 +6°C° 0 mm 5 m/s 761 mmHg 90%
    17:00 +5°C° 0 mm 4 m/s 761 mmHg 92%
    18:00 +5°C° 0 mm 3 m/s 762 mmHg 94%
    19:00 +4°C° 0 mm 3 m/s 763 mmHg 95%
    20:00 +4°C° 0 mm 3 m/s 764 mmHg 94%
    21:00 +5°C° 0 mm 2 m/s 764 mmHg 93%
    22:00 +4°C° 0 mm 2 m/s 765 mmHg 92%
    23:00 +4°C° 0 mm 2 m/s 766 mmHg 92%

    22 Fevereiro, Sexta-feira

    Tempo Temperatura Precipitação Vento Pressão Humidade
    00:00 +3°C° 0 mm 2 m/s 767 mmHg 92%
    01:00 +2°C° 0 mm 2 m/s 767 mmHg 93%
    02:00 +2°C° 0 mm 2 m/s 768 mmHg 91%
    03:00 +1°C° 0 mm 2 m/s 768 mmHg 90%
    04:00 +1°C° 0 mm 2 m/s 769 mmHg 89%
    05:00 -1°C° 0 mm 2 m/s 770 mmHg 87%
    06:00 +1°C° 0 mm 1 m/s 770 mmHg 85%
    07:00 +1°C° 0 mm 1 m/s 771 mmHg 83%
    08:00 +2°C° 0 mm 1 m/s 772 mmHg 75%
    09:00 +3°C° 0 mm 1 m/s 772 mmHg 67%
    10:00 +4°C° 0 mm 1 m/s 773 mmHg 59%
    11:00 +5°C° 0 mm 1 m/s 773 mmHg 56%
    12:00 +6°C° 0 mm 1 m/s 774 mmHg 53%
    13:00 +7°C° 0 mm 1 m/s 774 mmHg 51%
    14:00 +7°C° 0 mm 1 m/s 774 mmHg 52%
    15:00 +7°C° 0 mm 1 m/s 774 mmHg 53%
    16:00 +7°C° 0 mm 1 m/s 774 mmHg 55%
    17:00 +6°C° 0 mm 1 m/s 774 mmHg 59%
    18:00 +5°C° 0 mm 1 m/s 775 mmHg 63%
    19:00 +4°C° 0 mm 1 m/s 775 mmHg 66%
    20:00 +3°C° 0 mm 2 m/s 775 mmHg 68%
    21:00 +3°C° 0 mm 2 m/s 775 mmHg 69%
    22:00 +1°C° 0 mm 3 m/s 775 mmHg 70%
    23:00 +1°C° 0 mm 3 m/s 775 mmHg 71%

    23 Fevereiro, Sábado

    Tempo Temperatura Precipitação Vento Pressão Humidade
    00:00 +1°C° 0 mm 3 m/s 775 mmHg 72%
    01:00 +1°C° 0 mm 3 m/s 775 mmHg 74%
    02:00 +1°C° 0 mm 3 m/s 775 mmHg 79%
    03:00 +1°C° 0 mm 3 m/s 775 mmHg 83%
    04:00 +1°C° 0 mm 3 m/s 774 mmHg 88%
    05:00 +1°C° 0 mm 3 m/s 774 mmHg 91%
    06:00 +1°C° 0 mm 3 m/s 774 mmHg 93%
    07:00 +1°C° 0 mm 3 m/s 774 mmHg 96%
    08:00 +2°C° 0 mm 3 m/s 774 mmHg 93%
    09:00 +3°C° 0 mm 3 m/s 774 mmHg 90%
    10:00 +5°C° 0 mm 4 m/s 774 mmHg 88%
    11:00 +6°C° 0 mm 4 m/s 773 mmHg 84%
    12:00 +7°C° 0 mm 4 m/s 773 mmHg 81%
    13:00 +10°C° 0 mm 4 m/s 773 mmHg 77%
    14:00 +10°C° 0 mm 4 m/s 773 mmHg 78%
    15:00 +8°C° 0 mm 4 m/s 772 mmHg 79%
    16:00 +8°C° 0 mm 4 m/s 772 mmHg 80%
    17:00 +8°C° 0 mm 4 m/s 772 mmHg 84%
    18:00 +7°C° 0 mm 4 m/s 772 mmHg 88%
    19:00 +7°C° 0 mm 3 m/s 771 mmHg 92%
    20:00 +7°C° 0 mm 3 m/s 771 mmHg 93%
    21:00 +5°C° 0 mm 3 m/s 771 mmHg 94%
    22:00 +5°C° 0 mm 3 m/s 771 mmHg 94%
    23:00 +5°C° 0 mm 3 m/s 771 mmHg 95%
    Mostrar mais